Regional Weather Roundup
Issued by NWS

Home | Current Version | Previous Version | Graphics & Text | Print | Product List | Glossary On
Versions: 1 2 3 4 5 6 7 8 9 10 11 12 13 14 15 16 17 18 19 20 21 22 23 24 25 26 27 28 29 30 31 32 33 34 35 36 37 38 39 40 41 42 43 44 45 46 47 48 49 50
000
ASUS45 KBOU 190607
RWRCO

WEATHER ROUNDUP FOR COLORADO
NATIONAL WEATHER SERVICE DENVER/BOULDER CO
1200 AM MDT TUE AUG 19 2014

NOTE: "FAIR" INDICATES FEW OR NO CLOUDS BELOW 12000 FEET WITH NO
SIGNIFICANT WEATHER AND/OR OBSTRUCTIONS TO VISIBILITY.

COZ001>005-013-030-031-190700-
...NORTHWEST COLORADO...

CITY           SKY/WX    TMP DP  RH WIND       PRES   REMARKS
CRAIG          MOCLDY    62  41  46 SE3       30.10R
HAYDEN         PTCLDY    61  39  44 E14       30.11S
MEEKER         MOCLDY    62  41  46 E6        30.10S
MOUNT WERNER   NOT AVBL
STEAMBOAT SPGS PTCLDY    56  41  58 CALM      30.15S
WALDEN         CLEAR     46  36  66 SE6       30.24F
$$

COZ006>008-011-190700-
...WEST CENTRAL VALLEYS...

CITY           SKY/WX    TMP DP  RH WIND       PRES   REMARKS
GRAND JUNCTION CLOUDY    79  37  22 E7        29.92S
MONTROSE       MOCLDY    70  38  31 SE10      30.04S
EAGLE          PTCLDY    57  37  47 E6        30.17S
RIFLE          MOCLDY    68  40  35 CALM      30.02S
DELTA          MOCLDY    75  40  28 NE7       29.98S
NUCLA          MOCLDY    73  41  31 S9        30.12R
$$

COZ017>023-064>068-190700-
...SOUTHWEST COLORADO...

CITY           SKY/WX    TMP DP  RH WIND       PRES   REMARKS
DURANGO        CLOUDY    73  41  31 W3        30.18S
CORTEZ         CLOUDY    74  45  35 CALM      30.14S
PAGOSA SPRINGS CLOUDY    62  43  48 NE10      30.28F
TELLURIDE      CLOUDY    64  36  34 SE8G21    30.34S
WOLF CREEK PAS NOT AVBL
$$

COZ009-010-012-014-032>034-037-058>063-190700-
...CENTRAL COLORADO...

CITY           SKY/WX    TMP DP  RH WIND       PRES   REMARKS
ASPEN          PTCLDY    56  38  50 SW6       30.22R
BUENA VISTA    PTCLDY    55  39  54 NW5       30.26F
COPPER MTN     PTCLDY    55  28  35 S17       30.56S
BERTHOUD PASS  FAIR      45  45 100 MISG      30.61S
COTTONWOOD PAS PTCLDY    61  34  36 CALM      30.41S
GUNNISON       CLOUDY    64  37  36 N7        30.27R
KREMMLING      CLEAR     54  36  50 CALM      30.22S
LEADVILLE      PTCLDY    45  34  65 CALM      30.40R
MONARCH PASS   MOCLDY    50  32  50 S13       30.66F
SALIDA         PTCLDY    67  38  33 CALM      30.30S
SUNLIGHT       MOCLDY    57  34  41 CALM      30.46S
WILKERSON PASS PTCLDY    52  30  43 S3        30.54F
$$

COZ069>075-190700-
...SAN LUIS VALLEY/SANGRE DE CRISTO MOUNTAINS...

CITY           SKY/WX    TMP DP  RH WIND       PRES   REMARKS
ALAMOSA        CLOUDY    63  43  48 W12       30.26R
LA VETA PASS   CLOUDY    55  36  47 S7        30.47R
SAGUACHE       CLOUDY    61  43  51 E10       30.29S
$$

COZ035-036-038>040-190700-
...NORTHERN COLORADO FRONT RANGE...

CITY           SKY/WX    TMP DP  RH WIND       PRES   REMARKS
DENVER INTL AP PTCLDY    65  46  50 W6        30.08S
DMNS CITY PARK   N/A     63  49  59 NE5       30.07S
AURORA         PTCLDY    62  46  57 S6        30.10S
FRONT RANGE AP CLEAR     63  48  59 SE7       30.09R
ERIE MUNI ARPT CLEAR     61  49  65 SW3       30.08R
BOULDER MUN AP CLEAR     64  48  55 SW5       30.08F
CENTENNIAL     PTCLDY    64  46  52 SW3       30.11R
BROOMFIELD     CLEAR     68  48  49 NW12      30.11S
FORT COLLINS   PTCLDY    64  48  55 CALM      30.08F
LONGMONT       PTCLDY    63  52  67 W5        30.09S
$$

COZ041-046-047-076>085-087-088-190700-
...PIKES PEAK/PALMER DIVIDE AND SOUTHERN FOOTHILLS...

CITY           SKY/WX    TMP DP  RH WIND       PRES   REMARKS
COLO. SPRINGS  PTCLDY    66  46  48 N7        30.14R
A. F. ACADEMY  PTCLDY    63  44  49 SE6       30.16R
ELLICOTT       PTCLDY    67  45  45 E15G21    30.10S
FALCON         PTCLDY    60  46  59 N6        30.18S
FORT CARSON    PTCLDY    62  45  53 N7        30.10F
LIMON          MOCLDY    65  55  70 SE9       30.07S
MONUMENT HILL  MOCLDY    55  46  71 S7        30.18R
TRINIDAD       MOCLDY    73  42  32 W17       30.07R
$$

COZ042>045-048>051-090-091-190700-
...NORTHEAST COLORADO...

CITY           SKY/WX    TMP DP  RH WIND       PRES   REMARKS
GREELEY ARPT   PTCLDY    61  48  63 CALM      30.06F
AKRON          PTCLDY    63  55  75 S9        30.02S
BURLINGTON     CLOUDY    65  58  78 SE7       29.99F
WRAY             N/A     64  53  66 SW3       29.95F
STERLING       PTCLDY    70  57  64 S9        29.98F
HOLYOKE        NOT AVBL
FORT MORGAN    PTCLDY    64  52  65 CALM      30.03F
$$

COZ086-089-092>099-190700-
...SOUTHEAST COLORADO...

CITY           SKY/WX    TMP DP  RH WIND       PRES   REMARKS
PUEBLO         MOCLDY    69  42  37 N13       30.00S
LA JUNTA       MOCLDY    71  45  39 E9        29.93S
LAMAR          PTCLDY    73  48  41 E12       29.89R
SPRINGFIELD      N/A     71  46  40 S12       29.99R
$$



USA.gov is the U.S. government's official web portal to all federal, state and local government web resources and services.